Location: Cheyres
(46.8153°N, 6.7877°E)
Time: 04:29:55
(UTC+00:00)

Cosmos 1125 Rocket - Pass Details

Date: 11 May 2021
Orbit: 758 x 779 km, 74.0° (Epoch: 18 June)

Event Time Altitude Azimuth Distance (km) Brightness Sun altitude
Exits shadow 23:26:52 61° 115° (ESE) 869 3.5 -25.0°
Maximum altitude 23:27:00 61° 107° (ESE) 867 3.6 -25.0°
Drops below altitude 10° 23:32:08 10° 28° (NNE) 2,303 6.8 -25.0°
Sets 23:34:32 0° 25° (NNE) 3,231 7.8 -25.0°
